Location: Hohenfelde
(53.8441°N, 9.6220°E)
Time: 12:01:49
(UTC+00:00)

Cosmos 1356 - Pass Details

Date: 14 July 2020
Orbit: 443 x 447 km, 81.1° (Epoch: 12 August)

Event Time Altitude Azimuth Distance (km) Brightness Sun altitude
Exits shadow 02:04:49 - 182° (S) 1,929 6.1 -7.3°
Reaches altitude 10° 02:05:40 10° 181° (S) 1,575 5.7 -7.2°
Maximum altitude 02:09:04 62° 100° (E) 512 3.8 -6.9°
Drops below altitude 10° 02:12:29 10° 20° (NNE) 1,587 7.6 -6.6°
Sets 02:14:35 0° 17° (NNE) 2,463 8.6 -6.4°
